カタログに戻る

FENGYUN 1C DEB

運用中PO
NORAD 35194·DEBRIS·🇨🇳 China

打ち上げ May 10, 1999 から Taiyuan Satellite Launch Center

Loading…

次のパス (今後24時間)

TLE

最新Source: Space-Track

元期: Sep 14, 2026, 13:06 UTC

1 35194U 99025DPA 26257.54638949  .00002103  00000-0  39173-3 0  9999
2 35194  98.9487   8.2427 0108520 311.6806  47.5143 14.62599176694196

AllMySatでFENGYUN 1C DEBをリアルタイム追跡

Download on the App Store